Location: Iesi
(43.5167°N, 13.2333°E)
Time: 21:20:56
(UTC+00:00)

X-37B - Pass Details

Date: 04 November 2020
Orbit: 384 x 390 km, 45.0° (Epoch: 26 November)

Event Time Altitude Azimuth Distance (km) Brightness Sun altitude
Exits shadow 04:41:22 16° 242° (WSW) 1,121 2.4 -12.3°
Maximum altitude 04:43:48 67° 161° (SSE) 423 0.8 -11.8°
Drops below altitude 10° 04:46:58 10° 78° (ENE) 1,414 4.6 -11.3°
Sets 04:49:02 0° 76° (ENE) 2,269 5.8 -10.9°
